FAURECIA FECT GERMANY GMBH
FAURECIA FECT GERMANY GMBH's Shipments Over Time
Supply Ratings
Shipment Reliability and Frequency Volume of Goods
Avg. Shipments per Month: 3.83 Average TEU per month: 4.88
Active Months: 12 Average TEU per Shipment: 1.27
Shipment Frequency Std. Dev.: 1.03
Shipments By Companies
Company Name Shipments
BOYSEN USA ALABAMA LLC 232 shipments
AUTOPARTES WALKER S DE RL DE CV 3 shipments
BOYSEN USA LLC 1 shipments
Shipments By HS Code
HS Code Shipments
841590 Air conditioning machines; with motor driven fan and elements for temperature control, parts thereof 185 shipments
841590.0 Air conditioning machines; comprising a motor driven fan and elements for changing the temperature and humidity, including those machines in which the humidity cannot be separately regulated 33 shipments
731816 Iron or steel; threaded nuts 10 shipments
870892 Vehicle parts; silencers (mufflers) and exhaust pipes; parts thereof 7 shipments
850110 Electric motors; of an output not exceeding 37.5W 1 shipments
to show market analysis.
Similar Suppliers
to see more.
Latest Shipments
Arrival Date Bill Of Lading Consignee Weight HS Code Description
2026-07-25 AOAEA1CHS577568 BOYSEN USA ALABAMA LLC 3120.0 kg 841590 AUTOMOTIVE PARTS
2026-07-13 AOAEA1CHS575716 BOYSEN USA ALABAMA LLC 2924.0 kg 841590 AUTOMOTIVE PARTS
2026-07-01 AOAEA1CHS574664 BOYSEN USA ALABAMA LLC 2210.0 kg 841590 AUTOMOTIVE PARTS
2026-06-17 AOAEA1CHS572233 BOYSEN USA ALABAMA LLC 2688.0 kg 841590 AUTOMOTIVE PARTS
2026-06-09 AOAEA1CHS571579 BOYSEN USA ALABAMA LLC 2978.0 kg 841590 AUTOMOTIVE PARTS
2026-05-31 AOAEA1CHS569577 BOYSEN USA ALABAMA LLC 3536.0 kg 841590 AUTOMOTIVE PARTS
2026-05-31 AOAEA1CHS568466 BOYSEN USA ALABAMA LLC 1614.0 kg 841590 AUTOMOTIVE PARTS
2026-05-31 AOAEA1CHS570452 BOYSEN USA ALABAMA LLC 2738.0 kg 841590 AUTOMOTIVE PARTS
2026-05-14 AOAEA1CHS567875 BOYSEN USA ALABAMA LLC 2970.0 kg 841590 AUTOMOTIVE PARTS
2026-05-03 AOAEA1CHS567113 BOYSEN USA ALABAMA LLC 3860.0 kg 841590 AUTOMOTIVE PARTS
2026-04-29 AOAEA1CHS566051 BOYSEN USA ALABAMA LLC 2748.0 kg 841590.0 AUTOMOTIVE PARTS
2026-04-08 AOAEA1CHS564348 BOYSEN USA ALABAMA LLC 2714.0 kg 841590.0 AUTOMOTIVE PARTS
2026-04-08 AOAEA1CHS565152 BOYSEN USA ALABAMA LLC 2380.0 kg 841590.0 AUTOMOTIVE PARTS
2026-03-31 AOAEA1CHS563306 BOYSEN USA ALABAMA LLC 4072.0 kg 841590.0 AUTOMOTIVE PARTS
2026-03-31 AOAEA1CHS563832 BOYSEN USA ALABAMA LLC 1890.0 kg 841590.0 AUTOMOTIVE PARTS
2026-03-18 AOAEA1CHS562399 BOYSEN USA ALABAMA LLC 2924.0 kg 841590.0 AUTOMOTIVE PARTS
2026-03-11 AOAEA1CHS560570 BOYSEN USA ALABAMA LLC 2760.0 kg 841590.0 AUTOMOTIVE PARTS
2026-03-11 AOAEA1CHS561763 BOYSEN USA ALABAMA LLC 3654.0 kg 841590.0 AUTOMOTIVE PARTS
2026-02-26 AOAEA1CHS559409 BOYSEN USA ALABAMA LLC 2942.0 kg 841590.0 AUTOMOTIVE PARTS
2026-02-19 AOAEA1CHS558005 BOYSEN USA ALABAMA LLC 2582.0 kg 841590.0 AUTOMOTIVE PARTS
2026-02-19 AOAEA1CHS558800 BOYSEN USA ALABAMA LLC 1544.0 kg 841590.0 AUTOMOTIVE PARTS
2026-02-10 AOAEA1CHS556379 BOYSEN USA ALABAMA LLC 1568.0 kg 841590.0 AUTOMOTIVE PARTS
2026-01-22 AOAEA1CHS555183 BOYSEN USA ALABAMA LLC 6902.0 kg 841590.0 AUTOMOTIVE PARTS
2026-01-03 AOAEA1CHS553440 BOYSEN USA ALABAMA LLC 3242.0 kg 841590.0 AUTOMOTIVE PARTS
2026-01-03 AOAEA1CHS554344 BOYSEN USA ALABAMA LLC 2181.0 kg 841590.0 AUTOMOTIVE PARTS
2025-12-26 AOAEA1CHS551822 BOYSEN USA ALABAMA LLC 1995.0 kg 841590.0 AUTOMOTIVE PARTS
2025-12-26 AOAEA1CHS552333 BOYSEN USA ALABAMA LLC 1737.0 kg 841590.0 AUTOMOTIVE PARTS
2025-12-21 AOAEA1CHS551093 BOYSEN USA ALABAMA LLC 760.0 kg 841590.0 AUTOMOTIVE PARTS
2025-12-06 AOAEA1CHS550003 BOYSEN USA ALABAMA LLC 2080.0 kg 841590.0 AUTOMOTIVE PARTS
2025-11-21 AOAEA1CHS549500 BOYSEN USA ALABAMA LLC 1523.0 kg 841590.0 AUTOMOTIVE PARTS
2025-11-17 AOAEA1CHS547448 BOYSEN USA ALABAMA LLC 3248.0 kg 841590.0 AUTOMOTIVE PARTS
2025-11-17 AOAEA1CHS547855 BOYSEN USA ALABAMA LLC 2860.0 kg 841590.0 AUTOMOTIVE PARTS
2025-11-17 AOAEA1CHS548275 BOYSEN USA ALABAMA LLC 528.0 kg 841590.0 AUTOMOTIVE PARTS
2025-11-05 AOAEA1CHS546878 BOYSEN USA ALABAMA LLC 1548.0 kg 841590.0 AUTOMOTIVE PARTS
2025-10-11 AOAEA1CHS545212 BOYSEN USA ALABAMA LLC 2660.0 kg 841590.0 AUTOMOTIVE PARTS
2025-10-11 AOAEA1CHS546006 BOYSEN USA ALABAMA LLC 2548.0 kg 841590.0 AUTOMOTIVE PARTS
2025-10-05 AOAEA1CHS544413 BOYSEN USA ALABAMA LLC 1392.0 kg 841590.0 AUTOMOTIVE PARTS
2025-09-23 AOAEA1CHS543643 BOYSEN USA ALABAMA LLC 1476.0 kg 841590.0 AUTOMOTIVE PARTS
2025-09-23 AOAEA1CHS542823 BOYSEN USA ALABAMA LLC 2050.0 kg 841590.0 AUTOMOTIVE PARTS
2025-09-11 AOAEA1CHS542050 BOYSEN USA ALABAMA LLC 1900.0 kg 841590.0 AUTOMOTIVE PARTS
2025-09-11 AOAEA1CHS541295 BOYSEN USA ALABAMA LLC 3526.0 kg 841590.0 AUTOMOTIVE PARTS
2025-08-30 AOAEA1CHS539994 BOYSEN USA ALABAMA LLC 4282.0 kg 841590.0 AUTOMOTIVE PARTS
2025-08-24 AOAEA1CHS539745 BOYSEN USA ALABAMA LLC 2620.0 kg 841590.0 AUTOMOTIVE PARTS
2025-08-20 AOAEA1CHS539024 BOYSEN USA ALABAMA LLC 1768.0 kg 841590 AUTOMOTIVE PARTS
2025-08-20 AOAEA1CHS538228 BOYSEN USA ALABAMA LLC 3880.0 kg 841590 AUTOMOTIVE PARTS
2025-08-13 AOAEA1CHS537563 BOYSEN USA ALABAMA LLC 1836.0 kg 841590 AUTOMOTIVE PARTS
2025-07-30 AOAEA1CHS535736 BOYSEN USA ALABAMA LLC 1478.0 kg 841590 AUTOMOTIVE PARTS
2025-07-30 AOAEA1CHS536423 BOYSEN USA ALABAMA LLC 3629.0 kg 841590 AUTOMOTIVE PARTS
2025-07-19 AOAEA1CHS534860 BOYSEN USA ALABAMA LLC 2596.0 kg 841590 AUTOMOTIVE PARTS
2025-07-08 AOAEA1CHS534062 BOYSEN USA ALABAMA LLC 2372.0 kg 841590 AUTOMOTIVE PARTS
Contact information Request
to request contact information.
Other address
9 BIBERBACHSTRASSE AUGSBURG 86154 DE
9 BILDERBACHSTRASSE
9 BIBERBACHSTRASSE AUGSBURG 86154 DE
9 BILDERBACHSTRASSE AUGSBURG 86154 DE
9 BIBDERBACHSTRASSE AUGSBURG 86154 DE